Regional Weather Roundup
Issued by NWS Sioux Falls, SD

Home | Current Version | Previous Version | Graphics & Text | Print | Product List | Glossary Off
Versions: 1 2 3 4 5 6 7 8 9 10 11 12 13 14 15 16 17 18 19 20 21 22 23 24 25 26 27 28 29 30 31 32 33 34 35 36 37 38 39 40 41 42 43 44 45 46 47 48 49 50

845
ASUS43 KFSD 262310
RWRFSD

WEATHER ROUNDUP FOR SE SOUTH DAKOTA/SW MINNESOTA/NW IOWA
NATIONAL WEATHER SERVICE SIOUX FALLS SD
600 PM CDT THU APR 26 2018

NOTE: "FAIR" INDICATES FEW OR NO CLOUDS BELOW 12,000 FEET WITH NO
SIGNIFICANT WEATHER AND OR OBSTRUCTIONS TO VISIBILITY.


SDZ038>040-050-052>070-270000-
SOUTHEAST SOUTH DAKOTA

CITY           SKY/WX    TMP DP  RH WIND       PRES   REMARKS
BROOKINGS      SUNNY     57  32  38 N20       30.03R
CHAMBERLAIN    SUNNY     65  29  26 NW12      30.09F
HURON          SUNNY     63  31  30 NW20G31   30.04F
MADISON        FAIR      57  28  33 N22G28    30.05S
MITCHELL       SUNNY     63  32  31 N17G28    30.07F
SIOUX FALLS    SUNNY     59  30  33 N22       30.03S
WINNER         FAIR      66  27  23 NW17      30.11S
YANKTON        SUNNY     61  29  29 N26       30.06F
$$

MNZ071-072-080-081-089-090-097-098-270000-
SOUTHWEST MINNESOTA

CITY           SKY/WX    TMP DP  RH WIND       PRES   REMARKS
FAIRMONT       SUNNY     56  35  45 NW23G29   29.95S
JACKSON        SUNNY     54  34  47 NW26G37   29.98S
LUVERNE        SUNNY     57  28  33 N18G26    30.02S
MARSHALL       SUNNY     56  36  47 N20G25    30.01R
MONTEVIDEO     SUNNY     57  30  35 N23G33    30.01R
PIPESTONE      SUNNY    N/A N/A N/A N18G30    30.02S
REDWOOD FALLS  SUNNY     56  29  35 NW22G35   29.97S
TRACY          SUNNY     56  37  48 N22G30    30.00S
WINDOM         SUNNY     55  30  38 NW24G36   29.98S
WORTHINGTON    SUNNY     56  35  45 NW21G30   30.01S
$$

IAZ001>003-012>014-020>022-031-032-NEZ013-014-SDZ071-270000-
NORTHWEST IOWA

CITY           SKY/WX    TMP DP  RH WIND       PRES   REMARKS
CHEROKEE       SUNNY     60  32  34 N15G29    29.99S
DENISON        SUNNY     63  30  29 N24G32    29.99R
ESTHERVILLE    SUNNY     55  35  47 NW28G36   29.97R
LE MARS        SUNNY     63  27  25 NW16G31   30.01S
ORANGE CITY    SUNNY     61  34  36 N14G28    30.01F
SHELDON        SUNNY     59  32  36 N23G31    29.99S
SIOUX CITY     SUNNY     63  30  28 N21G29    30.01R
SPENCER        SUNNY     58  32  37 N23G35    29.98S
STORM LAKE     SUNNY     59  32  36 N23G35    29.98S
$$

ABBREVIATIONS USED IN REMARKS
   TC - TEMPERATURE IN CELSIUS
  WCI - WIND CHILL INDEX
   HX - HEAT INDEX
  VSB - VISIBILITY





USA.gov is the U.S. government's official web portal to all federal, state and local government web resources and services.